Temp
17 16 16 16 16 16 16 16 16 16 16 15 15 14 14 14 13 14 14 13 13 13 13 13 12 12 12 12 12 12 12 12 11 11 11 11 11 11 10 10 10 9
16 16 16 16 16 16 16 16 16 16 15 15 15 14 14 13 13 14 13 13 13 13 12 12 12 12 12 12 12 12 12 11 11 11 11 11 11 11 10 9 9 9
16 16 16 16 17 17 16 16 16 15 15 15 15 14 13 13 13 13 13 13 13 12 12 12 12 12 12 12 12 11 11 11 11 11 11 11 11 10 10 9 9 9
16 16 16 16 17 17 16 16 15 15 15 15 14 14 13 13 13 13 13 13 13 12 12 12 12 12 12 12 11 11 11 11 10 11 11 11 10 10 9 9 9 9
16 16 16 17 17 16 16 16 15 15 15 14 14 14 14 14 13 13 13 13 12 12 12 12 12 12 12 11 11 11 10 10 10 10 11 10 10 9 9 8 8 8
16 16 16 16 16 16 16 15 15 15 15 14 14 14 14 13 13 13 13 12 12 12 12 12 12 12 12 11 11 10 10 10 10 10 10 10 9 9 8 8 8 8
16 16 16 16 16 16 16 15 15 15 14 14 14 14 13 13 13 13 13 12 12 12 12 12 11 11 11 11 11 10 10 10 10 10 10 9 9 8 8 8 8 8
16 16 16 16 16 16 15 15 15 15 14 14 13 13 13 13 13 13 12 12 12 12 12 11 11 11 11 11 11 10 10 10 10 10 9 9 9 8 8 8 8 8
16 15 16 16 15 15 15 15 15 14 14 14 13 13 13 13 13 13 13 12 12 12 11 11 11 11 11 11 11 10 9 9 9 9 9 9 8 8 8 8 8 8
15 15 16 15 15 15 15 15 15 14 14 14 13 13 13 13 13 13 13 12 12 12 11 11 11 11 11 10 10 10 9 9 9 9 9 9 8 8 8 8 8 8
15 15 15 15 15 15 15 14 14 14 14 14 13 13 13 13 13 13 13 13 12 12 12 11 11 11 11 10 10 10 9 9 9 9 9 9 9 9 9 8 8 8
15 15 15 15 15 15 15 14 14 14 14 14 13 13 13 13 13 13 13 13 12 12 12 11 11 11 11 10 10 9 9 9 9 9 9 9 9 9 9 9 9 9
15 15 15 15 15 15 14 14 14 14 14 14 13 13 13 13 13 13 13 13 12 12 12 11 11 11 10 10 10 9 9 9 9 9 9 9 9 9 9 9 9 9
15 15 15 15 14 14 14 13 13 13 13 14 13 13 13 13 13 13 13 12 12 12 11 11 11 11 10 10 10 9 9 9 9 9 9 9 9 9 9 9 9 9
14 14 14 14 14 13 13 13 13 13 13 13 13 13 13 13 13 13 13 12 12 12 11 11 11 11 10 10 10 9 9 9 9 9 9 9 9 9 9 9 9 9
14 14 14 13 13 13 13 13 13 13 13 13 13 13 13 13 13 13 13 12 12 11 11 11 11 10 10 10 10 9 9 9 9 9 9 9 9 9 9 9 9 9
14 14 13 13 13 13 13 13 13 13 13 12 12 12 12 12 12 12 12 12 12 11 11 11 10 10 10 10 9 9 9 9 9 9 9 9 9 9 9 9 9 9
13 13 13 13 13 13 13 13 12 12 12 12 12 12 12 12 12 12 12 12 11 11 11 11 10 10 10 9 9 9 9 9 9 9 9 9 9 9 9 9 9 9
13 13 13 13 13 13 13 12 12 12 12 12 12 12 12 12 12 12 11 11 11 11 11 10 10 10 9 9 9 9 9 9 8 9 9 9 9 9 9 9 9 9
13 13 13 13 12 12 12 12 12 12 12 12 12 12 12 11 11 11 11 11 11 11 10 10 10 9 9 9 9 8 8 8 8 8 9 9 9 9 9 9 9 9
13 13 13 12 12 12 12 11 11 11 11 11 12 12 11 11 11 11 11 10 10 10 10 10 9 9 8 8 8 8 8 8 8 8 8 9 9 9 9 9 9 9
12 13 12 12 11 11 10 10 11 11 11 11 11 11 11 11 10 10 10 10 10 10 10 9 8 8 8 8 8 8 8 8 8 8 8 8 8 8 9 9 9 9
12 12 11 10 10 9 9 9 10 11 11 11 11 10 10 10 10 10 10 10 10 10 10 9 8 8 8 8 8 8 8 8 8 8 8 8 8 8 8 9 9 9
12 12 11 10 9 9 9 10 10 11 11 11 11 11 10 10 10 10 10 10 10 10 10 10 9 8 8 8 8 8 8 8 8 8 8 8 8 8 8 8 9 9
11 11 11 11 11 10 11 11 11 11 11 10 10 10 10 10 10 10 10 10 10 10 10 10 9 8 8 8 8 8 8 8 8 8 8 8 8 8 8 8 8 8
11 11 12 11 10 10 11 11 11 10 10 10 10 10 10 10 10 10 10 9 9 9 9 9 9 8 8 8 8 8 8 8 8 8 8 8 8 8 8 8 8 8
Height
812 815 817 819 824 826 827 828 829 830 831 832 833 833 834 835 836 837 837 837 838 838 839 839 839 839 839 840 840 840 840 841 841 842 842 841 841 840 840 839 839 838
812 815 817 819 823 826 827 829 830 830 832 832 833 833 834 836 837 837 837 838 838 839 840 840 840 840 841 840 841 841 841 842 842 843 843 842 842 841 841 841 840 840
812 815 817 819 822 825 827 829 830 831 832 832 833 834 835 836 837 838 838 838 839 840 841 841 841 841 841 841 842 842 843 843 844 844 844 843 843 843 842 842 841 841
811 814 816 819 822 824 827 828 830 831 832 832 833 835 836 837 838 838 838 839 840 841 842 842 842 842 842 843 843 844 844 845 846 846 845 845 845 844 844 843 843 842
810 813 816 819 821 824 826 828 829 830 831 832 833 835 836 837 838 838 839 840 841 842 842 843 843 843 843 844 844 845 846 846 847 847 846 846 846 846 845 845 844 844
811 814 817 819 821 824 826 827 829 830 830 832 833 835 837 837 838 839 839 840 841 842 843 843 844 844 844 845 846 847 847 848 849 848 847 847 847 847 847 846 845 845
811 814 816 819 821 824 826 827 829 829 830 832 833 835 837 838 838 839 840 841 842 843 844 844 845 845 846 847 847 848 849 849 850 849 848 849 849 849 848 848 847 847
810 813 815 818 821 823 825 826 827 829 830 831 833 835 837 838 839 840 841 842 843 844 845 845 846 846 847 848 849 849 850 851 851 850 850 850 850 850 850 849 849 849
809 812 815 817 820 822 824 825 826 828 829 831 832 834 836 838 839 840 841 842 843 844 845 846 847 847 849 849 850 850 851 852 852 852 851 851 851 851 851 851 851 851
808 811 814 816 819 821 822 824 825 827 829 830 832 834 836 838 839 841 842 842 844 845 846 847 847 848 850 850 851 852 852 853 853 853 852 852 852 852 853 853 853 852
808 810 813 815 818 820 821 823 825 827 828 830 831 833 836 838 839 841 842 843 844 845 846 847 848 849 850 851 852 853 853 854 854 853 853 853 853 853 854 854 854 854
807 809 812 815 817 819 820 823 824 826 828 829 831 833 835 837 839 841 842 843 844 845 846 847 849 850 851 851 853 853 854 855 854 854 854 854 854 854 855 855 855 855
806 809 812 814 816 818 820 822 824 825 827 829 831 832 834 837 839 841 842 843 844 846 847 848 849 850 851 852 853 854 855 855 855 855 855 854 855 855 856 856 856 857
805 808 811 813 815 817 819 821 823 825 826 828 830 832 834 836 838 840 842 843 845 846 847 848 849 850 852 852 854 855 855 855 855 855 855 855 855 856 857 857 857 857
805 808 810 813 815 817 819 821 822 824 826 827 829 831 834 836 838 840 841 843 844 846 847 848 849 851 852 853 854 855 855 855 855 855 855 856 856 857 857 858 858 858
804 807 809 812 814 817 819 820 822 823 825 827 829 831 833 836 838 839 841 842 844 845 847 848 850 851 852 853 854 855 855 855 855 856 856 856 857 857 858 858 858 859
803 806 809 811 814 816 818 820 821 823 824 826 829 831 833 835 837 839 841 842 844 845 847 848 850 851 852 853 854 855 855 855 855 856 856 857 857 858 858 858 859 859
803 805 808 811 813 815 818 819 821 822 824 826 829 831 833 835 837 839 841 842 844 845 846 848 849 851 852 853 854 855 855 856 856 856 857 857 858 858 858 859 859 860
802 804 807 810 812 815 817 819 820 822 824 826 828 831 833 836 838 839 841 842 844 845 846 848 849 851 852 853 854 855 855 855 856 856 857 857 858 858 859 859 860 860
800 803 806 809 811 814 815 817 819 821 824 826 829 831 833 836 838 839 841 842 844 845 846 847 849 850 851 853 853 854 855 855 856 856 857 858 858 858 859 859 860 861
799 802 805 808 811 813 815 817 819 821 824 826 829 831 833 835 837 839 841 842 844 845 846 847 848 850 851 852 853 853 854 855 856 856 857 858 858 859 859 860 860 861
798 801 805 808 811 814 816 817 819 821 824 826 829 831 833 835 837 839 841 842 844 845 846 846 848 849 850 851 852 853 854 855 856 856 857 857 858 859 859 860 860 861
798 801 805 809 813 817 821 822 823 824 826 828 830 832 834 835 837 839 841 842 844 845 845 846 847 848 850 851 852 853 854 855 855 856 856 857 858 859 859 860 861 862
797 800 804 808 812 815 820 823 825 826 828 829 831 832 834 836 837 839 841 843 843 844 844 845 846 848 850 851 852 853 854 854 855 856 856 857 858 859 860 860 861 862
796 799 802 804 805 807 812 817 821 824 827 830 831 832 834 836 838 840 841 843 843 844 844 845 846 848 850 852 853 854 855 855 855 855 856 857 858 858 860 861 862 863
795 797 799 802 805 808 812 816 819 823 826 828 830 832 834 836 839 840 841 842 843 844 845 846 846 848 850 852 853 854 855 855 855 855 856 856 857 858 859 861 862 863
Wind_Speed
19 23 26 27 25 24 22 20 18 16 14 12 11 11 11 11 12 12 11 10 10 10 10 10 11 11 11 10 10 11 12 12 13 13 12 14 14 14 14 15 15 16
21 25 27 27 25 23 22 20 17 15 14 12 10 11 13 14 13 13 12 12 12 12 12 12 12 12 11 11 10 11 12 13 14 13 13 15 15 15 16 16 16 17
23 26 27 27 26 24 22 19 17 15 14 12 11 14 16 15 14 14 13 13 13 13 13 12 12 12 12 11 10 11 13 13 14 14 14 16 15 15 16 16 17 19
24 25 26 27 26 23 22 20 18 16 14 14 15 16 17 16 15 15 14 14 14 15 13 12 12 12 12 10 10 12 13 14 15 14 15 17 16 16 17 17 19 21
24 26 27 27 25 23 22 21 19 17 15 16 18 18 17 16 16 16 16 15 16 15 14 13 12 13 12 11 11 13 14 15 16 15 16 18 17 17 18 19 21 23
27 28 28 27 24 23 23 21 19 17 18 19 19 18 17 17 16 16 17 17 16 15 14 13 13 13 12 11 12 14 15 16 17 16 18 20 20 20 21 22 24 26
29 28 27 25 24 23 23 21 19 18 20 21 20 18 17 17 17 17 17 17 16 15 14 13 13 13 12 11 13 15 16 17 17 18 20 21 22 23 24 25 26 26
28 27 25 24 24 24 23 21 19 20 22 23 21 18 17 17 18 18 17 17 16 16 15 14 13 13 12 11 13 15 17 17 17 19 21 23 23 24 24 25 25 25
26 25 24 24 25 25 23 21 20 22 24 23 21 18 17 18 18 18 18 16 17 16 15 14 13 13 12 11 12 14 17 18 18 19 22 23 24 24 24 24 24 24
25 25 25 25 26 25 23 22 22 24 25 24 21 19 18 18 18 18 18 17 17 17 16 15 14 13 13 12 12 14 16 18 18 20 22 23 24 23 22 22 22 22
25 25 26 27 26 25 23 22 23 24 25 24 22 20 18 19 19 18 18 17 18 18 17 16 14 13 12 12 12 13 16 17 18 20 21 22 22 22 21 21 20 20
26 26 27 27 26 24 22 22 23 24 24 23 21 20 20 20 19 18 18 18 18 19 18 16 15 13 12 12 12 14 16 17 17 19 20 21 21 21 20 19 19 18
27 27 27 26 25 23 21 21 22 23 22 22 20 20 22 22 20 19 18 18 19 19 18 16 15 14 12 11 12 13 16 17 17 17 18 19 19 19 18 17 17 16
27 27 26 25 23 21 20 20 22 22 21 21 21 22 23 23 21 20 19 19 19 19 18 17 16 14 12 12 12 14 15 16 16 16 16 17 17 16 15 15 14 14
28 26 25 23 21 20 20 20 21 21 21 22 23 24 25 24 22 21 19 20 20 20 19 18 16 15 13 11 11 13 16 16 16 15 15 15 15 14 13 12 12 11
28 26 24 22 21 20 20 20 21 21 22 24 25 26 25 24 22 21 20 20 21 21 20 19 17 14 13 11 10 12 15 17 16 14 14 13 13 13 12 11 11 10
28 26 24 23 22 21 20 21 22 23 24 25 26 26 25 24 23 22 21 21 21 21 21 19 17 15 13 12 10 10 13 16 16 14 13 13 13 13 12 11 11 10
28 27 25 24 23 22 21 22 23 24 25 26 26 25 24 24 23 23 22 22 22 22 21 19 17 15 14 12 11 10 12 15 16 14 13 13 13 12 12 12 11 10
29 28 26 24 23 23 22 24 25 25 26 26 25 24 24 24 24 23 23 22 22 22 21 19 17 16 14 12 11 10 11 15 16 15 13 14 13 13 12 11 10 9
30 29 26 24 24 25 25 26 27 26 25 25 24 24 24 24 24 24 23 23 22 21 20 19 17 16 14 12 11 11 12 16 18 16 15 14 14 13 12 11 9 8
30 29 26 25 26 27 28 28 27 27 26 25 24 24 24 24 24 24 23 23 22 21 20 19 17 16 14 12 12 13 15 18 18 17 16 15 13 12 11 10 9 7
30 28 26 26 27 27 28 28 28 27 26 25 24 24 24 24 24 24 24 23 22 20 19 18 17 15 14 12 13 15 17 19 18 17 16 14 13 11 10 9 8 7
30 28 26 26 24 23 22 23 25 25 25 25 24 24 24 25 25 24 23 22 21 19 19 19 18 15 14 14 16 18 19 19 19 17 16 15 14 12 11 10 9 8
29 28 27 26 25 24 23 23 24 24 24 24 24 24 25 25 24 24 22 20 19 19 19 19 18 17 16 17 18 19 19 19 19 19 18 17 16 15 12 11 10 9
29 29 29 29 31 32 32 29 28 27 25 25 24 24 25 25 24 23 21 20 19 19 19 19 19 19 19 18 19 19 19 19 19 20 20 18 17 15 13 11 10 9
30 30 30 30 31 32 31 31 30 28 27 26 25 24 25 25 24 23 22 21 20 19 19 19 20 21 20 19 19 19 18 18 18 19 19 18 16 15 13 12 10 8
Wind_Direction
184 185 184 183 185 185 182 180 177 173 168 162 157 155 158 156 151 151 148 141 137 131 127 118 109 106 104 100 100 100 102 100 98 98 94 90 87 84 84 82 80 79
184 185 185 184 186 187 185 182 178 172 164 158 156 158 157 151 147 149 146 141 138 133 128 119 108 104 99 97 100 102 105 105 102 101 95 89 87 85 84 83 81 80
186 187 187 187 188 187 184 180 175 168 160 155 156 157 155 150 148 149 146 142 140 136 129 118 108 101 94 96 104 107 109 109 104 101 95 90 87 85 85 85 83 82
187 189 189 190 191 188 181 176 170 166 159 154 154 155 153 152 152 152 148 145 142 138 130 118 107 100 95 99 108 111 111 109 106 103 96 91 88 88 89 89 87 84
189 189 189 191 191 185 180 175 170 165 160 155 154 154 154 155 157 154 150 148 145 140 132 121 109 101 98 102 109 113 114 112 108 103 96 92 90 91 92 92 90 87
187 187 188 191 188 182 179 175 170 165 162 158 156 155 155 156 159 157 152 150 148 144 136 124 114 105 101 104 110 115 117 114 109 102 97 94 93 94 94 94 92 88
183 186 187 187 183 181 179 173 170 167 164 161 158 156 157 158 161 158 154 152 150 148 140 128 117 110 106 107 113 119 120 116 110 104 100 98 97 97 96 95 93 89
182 184 184 183 179 179 176 172 171 169 165 164 161 159 160 162 163 160 156 154 152 150 143 132 122 114 112 111 116 124 124 118 114 108 104 102 100 99 97 96 93 89
181 180 179 178 176 175 174 173 173 169 168 168 165 162 164 167 167 164 160 156 155 154 148 138 128 120 117 114 119 128 128 123 118 112 107 105 103 102 100 98 95 90
178 177 175 174 173 173 173 173 171 168 170 171 169 167 169 172 173 169 165 162 159 159 154 145 137 129 123 118 121 131 133 128 123 116 111 109 107 106 103 99 96 91
174 173 172 171 172 173 173 172 170 169 172 174 174 172 174 177 177 175 173 170 166 164 160 153 146 138 130 124 125 134 137 133 128 121 116 113 110 108 106 102 98 92
172 171 170 171 173 174 174 174 174 174 176 178 179 179 178 179 178 178 178 175 171 169 165 158 153 147 137 130 131 139 143 139 133 128 121 116 113 110 108 105 100 96
171 170 171 174 176 176 177 179 179 180 180 181 184 183 180 178 177 176 176 175 173 171 168 163 159 153 145 137 137 145 148 144 139 136 129 121 117 114 112 108 103 99
170 171 173 176 177 178 180 182 183 183 182 181 182 182 180 179 177 175 174 173 173 172 171 168 164 160 154 146 144 149 153 149 143 142 136 130 126 121 117 113 108 102
170 171 173 175 175 176 180 182 183 182 182 181 180 180 180 179 178 178 176 174 173 173 173 172 169 165 161 157 153 154 158 154 146 144 142 138 136 133 127 122 117 107
170 171 172 173 174 177 179 180 180 179 179 179 178 178 179 179 178 179 179 178 176 174 173 173 172 168 165 165 161 159 161 158 149 144 145 144 140 137 135 130 124 117
171 171 171 173 175 178 178 178 177 177 177 176 176 177 178 179 179 180 181 181 178 175 174 173 172 170 167 168 166 164 165 161 154 148 146 147 144 138 133 128 124 122
172 171 171 173 176 177 177 177 176 175 175 175 175 177 177 177 180 180 181 181 179 176 175 173 172 171 169 172 173 171 171 165 158 151 149 149 149 143 136 130 124 121
173 172 172 173 176 178 178 178 177 175 174 175 175 176 177 177 179 181 181 181 180 177 175 173 171 171 172 177 179 178 176 170 161 154 152 152 150 149 144 136 129 125
173 174 174 176 179 181 180 178 177 176 175 176 176 176 177 178 180 181 181 180 180 177 174 173 172 172 176 181 184 183 177 170 163 157 153 152 149 150 148 143 138 133
175 176 177 179 180 180 178 176 176 176 175 176 177 178 180 181 181 182 180 178 179 178 176 175 173 173 179 186 186 181 174 169 166 161 157 152 149 149 148 148 148 144
176 176 177 177 177 176 175 174 173 175 175 176 177 178 180 181 180 180 179 177 178 181 180 176 173 175 182 187 182 175 171 168 166 163 160 155 152 151 150 150 151 150
176 175 172 168 166 166 166 167 170 173 176 178 178 178 178 179 179 178 179 180 181 184 183 175 169 173 182 181 175 172 170 167 164 160 156 151 147 146 146 146 145 146
175 172 165 161 165 168 169 172 175 178 180 181 181 180 178 179 179 177 179 184 184 183 181 172 163 166 174 173 171 172 170 165 160 154 148 144 141 138 137 138 137 136
170 170 171 175 179 178 178 180 182 182 182 182 182 182 179 178 178 177 177 179 179 175 173 166 159 162 170 172 170 172 169 164 158 152 146 143 141 138 136 135 134 132
172 175 179 181 179 176 176 180 182 180 180 180 181 181 179 176 176 177 173 171 170 169 167 164 160 162 169 173 172 172 171 166 162 155 148 145 145 143 140 139 138 137